Location: Bambrugge
(50.9212°N, 3.9299°E)
Time: 12:48:27
(UTC+00:00)

Cosmos 2333 Rocket - Pass Details

Date: 23 May 2024
Orbit: 838 x 863 km, 70.8° (Epoch: 19 June)

Event Time Altitude Azimuth Distance (km) Brightness Sun altitude
Rises 02:29:27 0° 327° (NNW) 3,425 5.6 -9.4°
Reaches altitude 10° 02:31:57 10° 323° (NW) 2,489 4.8 -9.2°
Maximum altitude 02:37:31 56° 247° (WSW) 1,013 2.3 -8.6°
Drops below altitude 10° 02:43:06 10° 171° (S) 2,488 4.3 -8.0°
Sets 02:45:35 0° 167° (SSE) 3,424 5.0 -7.8°
